FW3046 Weather Reports


Display with metric or nautical units.
time (UTC)temp
F
wind
direction
speed
MPH
gust
MPH
rain 1hr
in
rain 24hr
in
rain mn
in
humidity
%
barometer
mb
20260506073045 44 154 0.0 2.0 0.11 1.20 0.28 93 1007.9
20260506071548 44 154 0.0 2.0 0.09 1.17 0.25 93 1007.8
20260506061541 45 154 0.0 2.0 0.08 1.07 0.15 92 1007.8
20260506044524 48 154 0.0 1.0 0.06 0.96 0.04 94 1008.4
20260506043021 48 154 0.0 2.0 0.07 0.95 0.03 93 1008.5
20260506041522 48 154 0.0 3.0 0.07 0.94 0.02 94 1008.5
20260506040025 48 154 0.0 3.0 0.06 0.92 0.92 94 1008.6
20260506034518 48 154 0.0 1.0 0.06 0.90 0.90 93 1008.7
20260506033017 48 154 0.0 2.0 0.07 0.88 0.88 93 1008.8
20260506031524 48 154 1.0 2.0 0.10 0.87 0.87 93 1008.6
20260506030017 48 154 0.0 0.0 0.19 0.86 0.86 93 1009.1
20260506024532 48 154 0.0 2.0 0.22 0.84 0.84 93 1009.3
20260506023013 48 154 0.0 2.0 0.24 0.81 0.81 93 1008.9
20260506021512 48 154 0.0 3.0 0.26 0.77 0.77 93 1008.5
20260506020008 49 154 0.0 1.0 0.22 0.67 0.67 93 1008.5
20260506014513 49 154 0.0 1.0 0.20 0.62 0.62 93 1008.4
20260506013006 49 154 0.0 2.0 0.15 0.56 0.56 92 1008.4
20260506011504 49 154 0.0 3.0 0.10 0.51 0.51 92 1008.4
20260506010003 49 154 0.0 3.0 0.04 0.45 0.45 92 1007.9
20260506004607 50 154 0.0 2.0 0.02 0.42 0.42 92 1007.8
20260506003058 50 154 0.0 0.0 0.06 0.41 0.41 92 1007.9
20260506001556 51 154 0.0 1.0 0.11 0.41 0.41 91 1007.9
20260506000114 52 154 0.0 2.0 0.24 0.41 0.41 91 1007.7
20260505234551 53 154 0.0 1.0 0.33 0.40 0.40 91 1007.9
20260505233044 54 154 0.0 3.0 0.28 0.35 0.35 90 1007.9
20260505231540 56 153 1.0 4.0 0.24 0.30 0.30 90 1008.1
20260505230057 57 154 0.0 2.0 0.10 0.16 0.16 92 1008.0
20260505224540 57 154 0.0 2.0 0.01 0.07 0.07 91 1006.9
20260505223033 58 154 0.0 1.0 0.01 0.07 0.07 91 1007.1
20260505221533 58 154 0.0 2.0 0.00 0.06 0.06 91 1007.1
20260505220033 58 154 0.0 1.0 0.01 0.06 0.06 91 1007.2
20260505214532 58 153 0.0 1.0 0.02 0.06 0.06 90 1007.3
20260505213033 58 153 0.0 1.0 0.02 0.06 0.06 90 1007.2
20260505211535 58 154 0.0 3.0 0.06 0.06 0.06 89 1007.2
20260505210031 59 153 0.0 2.0 0.05 0.05 0.05 88 1007.2
20260505204537 60 154 0.0 1.0 0.04 0.04 0.04 85 1007.2
20260505203025 62 154 0.0 4.0 0.04 0.04 0.04 81 1007.1
20260505201527 64 153 0.0 0.0 0.00 0.00 0.00 76 1006.7
20260505200024 65 154 0.0 2.0 0.00 0.00 0.00 74 1006.8
20260505194531 65 154 0.0 1.0 0.00 0.00 0.00 73 1006.9
20260505193025 65 154 0.0 1.0 0.00 0.00 0.00 73 1006.9
20260505191522 65 153 0.0 2.0 0.00 0.00 0.00 72 1007.0
20260505190022 64 154 0.0 2.0 0.00 0.00 0.00 73 1007.3
20260505184528 64 154 0.0 2.0 0.00 0.00 0.00 72 1007.6
20260505183021 64 154 0.0 3.0 0.00 0.00 0.00 72 1007.8
20260505181519 65 154 1.0 4.0 0.00 0.00 0.00 71 1007.6
20260505180017 65 154 1.0 4.0 0.00 0.00 0.00 70 1007.3
20260505174517 66 154 0.0 4.0 0.00 0.00 0.00 69 1007.2
20260505173015 66 154 2.0 7.0 0.00 0.00 0.00 68 1007.1
20260505171516 67 154 1.0 6.0 0.00 0.00 0.00 67 1007.1
20260505170017 67 154 1.0 4.0 0.00 0.00 0.00 67 1007.1
20260505164514 67 154 1.0 5.0 0.00 0.00 0.00 66 1007.0
20260505163016 69 153 2.0 5.0 0.00 0.00 0.00 64 1007.0
20260505161512 71 153 2.0 7.0 0.00 0.00 0.00 63 1006.9
20260505153005 71 154 2.0 6.0 0.00 0.00 0.00 64 1006.1
20260505151502 70 154 1.0 5.0 0.00 0.00 0.00 64 1006.6
20260505124551 59 154 0.0 2.0 0.00 0.00 0.00 81 1006.3
20260505123050 59 154 0.0 2.0 0.00 0.00 0.00 81 1006.1
20260505121611 59 153 1.0 3.0 0.00 0.00 0.00 81 1006.0
20260505120037 0 0.0 0.0 0.00 0.00 0.00 1005.0
20260505114535 0 0.0 0.0 0.00 0.00 0.00 1005.0
20260505113030 0 0.0 0.0 0.00 0.00 0.00 1005.4
20260505111533 0 0.0 0.0 0.00 0.00 0.00 1005.4
20260505101508 62 154 0.0 3.0 0.00 0.00 0.00 72 1004.8
20260505100016 62 154 0.0 1.0 0.00 0.00 0.00 71 1004.7
20260505094512 63 154 1.0 4.0 0.00 0.00 0.00 70 1004.4
20260505093013 63 154 0.0 5.0 0.00 0.00 0.00 70 1004.3
20260505091513 62 154 1.0 4.0 0.00 0.00 0.00 71 1004.1
20260505090005 63 154 0.0 5.0 0.00 0.00 0.00 71 1004.2
20260505084504 63 154 0.0 4.0 0.00 0.00 0.00 70 1004.0
20260505083000 63 154 1.0 3.0 0.00 0.00 0.00 71 1004.1
20260505081600 62 154 0.0 4.0 0.00 0.00 0.00 72 1004.0
20260505080100 62 154 0.0 2.0 0.00 0.00 0.00 73 1003.9